UAE7DN LOWW-OMDB

Flight info

Callsign UAE7DN
Flight time N/A
Altitude 35000
Route ARSIN1C/29 ARSIN DCT NALOX DCT SUNOR DCT OSDUK DCT AKIKA DCT DIMIS DCT IPTES/N0481F370 UL604 SALUN N705 MMA P751 DASUM Y234 FYM M872 BDB Y214 SIKNU/N0488F390 Y214 RAPMA DCT KUVSO DCT KATIT DCT PEKEM M628 RIGIL G783 ELUDA/N0503F350 G783 ASPED Q308 KIPOK Q568 IMPED
Aircraft B77W/H-SDE1E2E3FGHIJ2J3J4J5M1RWXY/LB1D1

Departure

Time 2026-04-26 17:19
Airport Vienna International Airport (LOWW)

Arrival

Time N/A
Airport Dubai International Airport (OMDB)
Time Latitude Longitude Altitude Speed Heading
2026-04-26 16:40 48.11771 16.56193 615 ft 0 kts 343°
2026-04-26 17:09 48.11768 16.56194 615 ft 2 kts 342°
2026-04-26 17:09 48.11754 16.56204 615 ft 2 kts 318°
2026-04-26 17:10 48.11744 16.56222 615 ft 2 kts 299°
2026-04-26 17:10 48.11739 16.56242 615 ft 2 kts 281°
2026-04-26 17:10 48.11738 16.56265 615 ft 2 kts 262°
2026-04-26 17:10 48.11742 16.56286 615 ft 2 kts 244°
2026-04-26 17:11 48.11750 16.56305 615 ft 2 kts 225°
2026-04-26 17:11 48.11762 16.56319 615 ft 2 kts 207°
2026-04-26 17:11 48.11773 16.56327 615 ft 0 kts 203°
2026-04-26 17:11 48.11775 16.56327 615 ft 0 kts 204°
2026-04-26 17:14 48.11774 16.56327 615 ft 0 kts 203°
2026-04-26 17:14 48.11714 16.56282 615 ft 9 kts 207°
2026-04-26 17:14 48.11654 16.56237 615 ft 9 kts 208°
2026-04-26 17:15 48.11553 16.56216 615 ft 7 kts 122°
2026-04-26 17:15 48.11531 16.56286 615 ft 7 kts 115°
2026-04-26 17:15 48.11504 16.56368 615 ft 10 kts 116°
2026-04-26 17:16 48.11467 16.56480 615 ft 13 kts 116°
2026-04-26 17:16 48.11421 16.56624 615 ft 17 kts 116°
2026-04-26 17:16 48.11353 16.56832 615 ft 24 kts 116°
2026-04-26 17:16 48.11280 16.57055 615 ft 22 kts 116°
2026-04-26 17:17 48.11214 16.57258 615 ft 20 kts 117°
2026-04-26 17:17 48.11146 16.57469 615 ft 22 kts 116°
2026-04-26 17:17 48.11108 16.57584 615 ft 9 kts 116°
2026-04-26 17:17 48.11064 16.57645 615 ft 8 kts 171°
2026-04-26 17:18 48.11010 16.57623 615 ft 8 kts 201°
2026-04-26 17:18 48.10954 16.57583 615 ft 9 kts 209°
2026-04-26 17:18 48.10930 16.57509 615 ft 8 kts 276°
2026-04-26 17:18 48.10972 16.57354 615 ft 26 kts 297°
2026-04-26 17:19 48.11396 16.56048 615 ft 133 kts 295°
2026-04-26 17:19 48.11872 16.54556 798 ft 173 kts 300°
2026-04-26 17:19 48.12374 16.52913 1606 ft 177 kts 288°
2026-04-26 17:20 48.12416 16.51099 2378 ft 183 kts 264°
2026-04-26 17:20 48.12144 16.49849 2544 ft 199 kts 245°
2026-04-26 17:20 48.10706 16.47905 2854 ft 228 kts 200°
2026-04-26 17:20 48.09092 16.47421 3147 ft 246 kts 187°
2026-04-26 17:21 48.07321 16.47272 3505 ft 263 kts 176°
2026-04-26 17:21 48.05424 16.47587 3919 ft 278 kts 173°
2026-04-26 17:21 48.03490 16.47972 4626 ft 281 kts 174°
2026-04-26 17:21 48.01546 16.48344 5330 ft 283 kts 176°
2026-04-26 17:22 47.99600 16.48706 6019 ft 285 kts 177°
2026-04-26 17:22 47.97647 16.49340 6719 ft 290 kts 163°
2026-04-26 17:22 47.95783 16.50474 7363 ft 295 kts 160°
2026-04-26 17:22 47.93884 16.51688 7939 ft 301 kts 160°
2026-04-26 17:23 47.91949 16.52929 8567 ft 304 kts 160°
2026-04-26 17:23 47.90004 16.54177 9179 ft 308 kts 159°
2026-04-26 17:23 47.88022 16.55446 9767 ft 312 kts 159°
2026-04-26 17:23 47.85990 16.56746 10352 ft 315 kts 159°
2026-04-26 17:24 47.83934 16.58059 10701 ft 329 kts 159°
2026-04-26 17:24 47.81771 16.59439 10962 ft 346 kts 159°
2026-04-26 17:24 47.79478 16.60901 11246 ft 364 kts 159°
2026-04-26 17:24 47.77108 16.62412 11582 ft 380 kts 158°
2026-04-26 17:25 47.74694 16.64168 11914 ft 396 kts 153°
2026-04-26 17:25 47.72215 16.66127 12322 ft 410 kts 153°
2026-04-26 17:25 47.69674 16.68140 12915 ft 419 kts 153°
2026-04-26 17:25 47.67082 16.70192 13664 ft 425 kts 153°
2026-04-26 17:26 47.64465 16.72262 14508 ft 429 kts 152°
2026-04-26 17:26 47.61798 16.74368 15462 ft 432 kts 152°
2026-04-26 17:26 47.59125 16.76478 16379 ft 436 kts 152°
2026-04-26 17:26 47.56443 16.78591 17232 ft 440 kts 152°
2026-04-26 17:27 47.53717 16.80737 18068 ft 445 kts 153°
2026-04-26 17:27 47.50977 16.82891 18881 ft 450 kts 152°
2026-04-26 17:27 47.48193 16.85078 19728 ft 454 kts 153°
2026-04-26 17:27 47.45361 16.87299 20550 ft 458 kts 153°
2026-04-26 17:28 47.42553 16.89499 21301 ft 463 kts 153°
2026-04-26 17:28 47.39692 16.91737 22026 ft 469 kts 153°
2026-04-26 17:28 47.36804 16.93993 22792 ft 472 kts 153°
2026-04-26 17:28 47.33888 16.96269 23532 ft 476 kts 153°
2026-04-26 17:29 47.30942 16.98564 24191 ft 482 kts 153°
2026-04-26 17:29 47.28956 17.00111 24631 ft 485 kts 153°
2026-04-26 17:29 47.24961 17.03216 25461 ft 492 kts 154°
2026-04-26 17:29 47.21936 17.05564 26098 ft 496 kts 154°
2026-04-26 17:30 47.18844 17.07962 26733 ft 501 kts 154°
2026-04-26 17:30 47.15765 17.10346 27374 ft 504 kts 154°
2026-04-26 17:30 47.12612 17.12783 28004 ft 508 kts 154°
2026-04-26 17:30 47.09469 17.15210 28626 ft 512 kts 154°
2026-04-26 17:31 47.06276 17.17673 29189 ft 516 kts 154°
2026-04-26 17:31 47.03117 17.20106 29808 ft 519 kts 154°
2026-04-26 17:31 46.99873 17.22601 30627 ft 517 kts 154°
2026-04-26 17:31 46.96727 17.25019 31512 ft 513 kts 154°
2026-04-26 17:32 46.93535 17.27467 32132 ft 514 kts 154°
2026-04-26 17:32 46.90350 17.29907 32583 ft 517 kts 154°
2026-04-26 17:32 46.87184 17.32329 33372 ft 512 kts 154°
2026-04-26 17:32 46.84022 17.34746 34195 ft 506 kts 154°
2026-04-26 17:33 46.80942 17.37097 34850 ft 502 kts 154°
2026-04-26 17:33 46.77830 17.39468 35170 ft 504 kts 154°
2026-04-26 17:34 46.68507 17.46553 35215 ft 501 kts 154°
2026-04-26 17:34 46.62252 17.51291 35209 ft 502 kts 154°
2026-04-26 17:35 46.56067 17.55964 35211 ft 502 kts 154°
2026-04-26 17:35 46.49863 17.60638 35213 ft 500 kts 154°
2026-04-26 17:36 46.43630 17.65322 35210 ft 501 kts 155°
2026-04-26 17:36 46.37377 17.70009 35205 ft 501 kts 155°
2026-04-26 17:37 46.31162 17.74656 35208 ft 501 kts 155°
2026-04-26 17:37 46.24957 17.79283 35203 ft 500 kts 155°
2026-04-26 17:38 46.15680 17.86178 35303 ft 499 kts 155°
2026-04-26 17:38 46.09520 17.90742 35212 ft 497 kts 155°
2026-04-26 17:39 46.03332 17.95314 35212 ft 497 kts 155°
2026-04-26 17:39 45.97173 17.99854 35214 ft 496 kts 155°
2026-04-26 17:40 45.92033 18.03634 35212 ft 497 kts 155°
2026-04-26 17:40 45.84817 18.08925 35207 ft 496 kts 155°
2026-04-26 17:41 45.78571 18.13325 35206 ft 494 kts 161°
2026-04-26 17:41 45.72055 18.16558 35210 ft 493 kts 163°
2026-04-26 17:42 45.65542 18.19672 35207 ft 494 kts 163°
2026-04-26 17:42 45.59013 18.22784 35209 ft 494 kts 163°
2026-04-26 17:43 45.52450 18.25903 35204 ft 493 kts 163°
2026-04-26 17:43 45.45924 18.28997 35204 ft 493 kts 163°
2026-04-26 17:44 45.39367 18.32097 35204 ft 492 kts 163°
2026-04-26 17:44 45.32849 18.35171 35205 ft 493 kts 163°
2026-04-26 17:45 45.26333 18.38237 35203 ft 492 kts 163°
2026-04-26 17:45 45.19812 18.41297 35204 ft 493 kts 163°
2026-04-26 17:46 45.13277 18.44357 35199 ft 492 kts 162°
2026-04-26 17:46 45.06751 18.47405 35200 ft 491 kts 162°
2026-04-26 17:47 45.01308 18.49942 35201 ft 491 kts 162°
2026-04-26 17:47 44.93736 18.53462 35198 ft 491 kts 162°
2026-04-26 17:48 44.87210 18.56488 35198 ft 491 kts 162°
2026-04-26 17:48 44.80654 18.59521 35193 ft 492 kts 162°
2026-04-26 17:49 44.74153 18.62521 35194 ft 492 kts 162°
2026-04-26 17:49 44.67619 18.65530 35190 ft 492 kts 163°
2026-04-26 17:50 44.61061 18.68542 35194 ft 491 kts 163°
2026-04-26 17:50 44.54573 18.71515 35194 ft 491 kts 163°
2026-04-26 17:51 44.48048 18.74498 35199 ft 491 kts 163°
2026-04-26 17:51 44.41521 18.77475 35212 ft 492 kts 163°
2026-04-26 17:52 44.34938 18.80470 35209 ft 493 kts 163°
2026-04-26 17:52 44.28375 18.83450 35205 ft 492 kts 163°
2026-04-26 17:53 44.21858 18.86401 35207 ft 492 kts 163°
2026-04-26 17:54 44.12013 18.90847 35213 ft 491 kts 163°
2026-04-26 17:54 44.05512 18.93774 35208 ft 492 kts 163°
2026-04-26 17:55 43.98975 18.96711 35213 ft 493 kts 163°
2026-04-26 17:55 43.92400 18.99657 35210 ft 493 kts 163°
2026-04-26 17:56 43.85832 19.02594 35215 ft 492 kts 163°
2026-04-26 17:57 43.72733 19.08431 35211 ft 491 kts 163°
2026-04-26 17:57 43.66185 19.11338 35211 ft 491 kts 163°
2026-04-26 17:58 43.53106 19.17125 35205 ft 492 kts 163°
2026-04-26 17:59 43.43314 19.21441 35207 ft 492 kts 163°
2026-04-26 17:59 43.36779 19.24313 35203 ft 491 kts 163°
2026-04-26 18:00 43.30256 19.27174 35204 ft 491 kts 163°
2026-04-26 18:00 43.23716 19.30035 35209 ft 492 kts 163°
2026-04-26 18:01 43.17166 19.32894 35211 ft 491 kts 163°
2026-04-26 18:01 43.10617 19.35747 35207 ft 492 kts 163°
2026-04-26 18:02 43.05170 19.38114 35200 ft 492 kts 163°
2026-04-26 18:02 42.97525 19.41429 35202 ft 491 kts 163°
2026-04-26 18:03 42.90981 19.44261 35196 ft 491 kts 163°
2026-04-26 18:03 42.84425 19.47091 35189 ft 491 kts 163°
2026-04-26 18:04 42.77862 19.49917 35191 ft 491 kts 163°
2026-04-26 18:05 42.68065 19.54125 35191 ft 492 kts 163°
2026-04-26 18:05 42.61499 19.56937 35188 ft 491 kts 163°
2026-04-26 18:06 42.54959 19.59733 35186 ft 492 kts 163°